Thomson, GA

11:50 AM EST on December 07, 2019 (GMT -0500)
Thomson-McDuffie County

Weather History for KHQU - October, 2019

Change the Weather History Date:

Monday, October 14, 2019

  Actual Average (KDNL) Record (KDNL)
Temperature  
Mean Temperature 70 °F -  
Max Temperature 82 °F 73 °F 84 °F (2007)
Min Temperature 58 °F 54 °F 41 °F (2006)
Cooling Degree Days 5    
Growing Degree Days 20 (Base 50)    
Moisture  
Dew Point 55 °F    
Average Humidity 70    
Maximum Humidity 100    
Minimum Humidity 19    
Precipitation  
Precipitation 0.02 in - - ()
Sea Level Pressure  
Sea Level Pressure 30.07 in    
Wind  
Wind Speed 3 mph (NNW)    
Max Wind Speed 10 mph    
Max Gust Speed -    
Visibility 8 miles    
Events Fog , Rain    
Averages and records for this station are not official NWS values.
T = Trace of Precipitation, MM = Missing Value Source: NWS Daily Summary

Daily Weather History Graph

Daily Weather History Graph

Search for Another Location

Airport or City:

Astronomy

Oct. 14, 2019 Rise Set
Actual Time 7:33 AM EDT 6:57 PM EDT
Civil Twilight 7:08 AM EDT 7:22 PM EDT
Nautical Twilight 6:39 AM EDT 7:51 PM EDT
Astronomical Twilight 6:11 AM EDT 8:20 PM EDT
Moon 7:47 PM EDT (10/14) 8:05 AM EDT (10/14)
Length of Visible Light 12h 14m
Length of Day
11h 24m
Waxing Gibbous, 99% of the Moon is Illuminated
Oct 14
Waxing Gibbous
Oct 21
Last Quarter
Oct 27
New
Nov 4
First Quarter
Nov 12
Full

Hourly Weather History & Observations

Time (EDT) Temp. Dew Point Humidity Pressure Visibility Wind Dir Wind Speed Gust Speed Precip Events Conditions
12:15 AM 66.4 °F 66.2 °F 99% 30.08 in 7.0 mi North 3.5 mph - 0.01 in Rain Rain
12:35 AM 65.7 °F 65.1 °F 98% 30.07 in 7.0 mi Calm Calm - 0.01 in Rain Light Rain
12:55 AM 65.3 °F 65.1 °F 99% 30.06 in 3.5 mi SW 3.5 mph - 0.01 in   Mostly Cloudy
1:15 AM 65.3 °F 65.3 °F 100% 30.06 in 4.0 mi Calm Calm - N/A   Mostly Cloudy
1:35 AM 65.3 °F 65.3 °F 100% 30.07 in 5.0 mi WNW 4.6 mph - N/A   Mostly Cloudy
1:55 AM 64.2 °F 63.5 °F 98% 30.07 in 10.0 mi WNW 5.8 mph - N/A   Scattered Clouds
2:15 AM 63.7 °F 63.5 °F 99% 30.06 in 7.0 mi West 4.6 mph - N/A   Scattered Clouds
2:35 AM 63.7 °F 63.3 °F 99% 30.05 in 10.0 mi WSW 3.5 mph - N/A   Clear
2:55 AM 63.7 °F 63.3 °F 99% 30.05 in 10.0 mi WNW 3.5 mph - N/A   Clear
3:15 AM 63.3 °F 63.1 °F 99% 30.03 in 5.0 mi Calm Calm - 0.01 in   Clear
3:35 AM 63.3 °F 63.1 °F 99% 30.02 in 10.0 mi Calm Calm - 0.01 in   Clear
3:55 AM 63.1 °F 63.0 °F 99% 30.03 in 5.0 mi Calm Calm - 0.01 in   Clear
4:15 AM 62.8 °F 62.6 °F 99% 30.03 in 4.0 mi WNW 3.5 mph - N/A   Clear
4:35 AM 62.8 °F 62.8 °F 100% 30.04 in 5.0 mi Calm Calm - N/A   Clear
4:55 AM 62.1 °F 61.9 °F 99% 30.04 in 3.5 mi Calm Calm - N/A   Clear
5:15 AM 61.9 °F 61.9 °F 100% 30.05 in 2.5 mi Calm Calm - N/A   Clear
5:35 AM 61.3 °F 61.3 °F 100% 30.05 in 3.5 mi Calm Calm - N/A   Clear
6:15 AM 61.0 °F 61.0 °F 100% 30.06 in 0.5 mi Calm Calm - N/A Fog Fog
6:35 AM 60.3 °F 60.3 °F 100% 30.06 in 2.5 mi Calm Calm - N/A   Mostly Cloudy
6:55 AM 60.1 °F 60.8 °F 100% 30.07 in 1.5 mi Calm Calm - N/A   Overcast
7:15 AM 61.0 °F - N/A% 30.08 in 0.2 mi North 3.5 mph - N/A Fog Fog
7:35 AM 61.0 °F - N/A% 30.08 in 0.2 mi North 3.5 mph - N/A Fog Fog
7:55 AM 61.2 °F - N/A% 30.08 in 0.2 mi NNW 3.5 mph - N/A Fog Fog
8:15 AM 61.5 °F - N/A% 30.08 in 0.2 mi North 5.8 mph - N/A Fog Fog
8:35 AM 61.9 °F - N/A% 30.09 in 5.0 mi North 4.6 mph - N/A   Haze
8:55 AM 62.1 °F - N/A% 30.10 in 7.0 mi NNW 4.6 mph - N/A   Overcast
9:15 AM 63.0 °F 62.8 °F 99% 30.11 in 10.0 mi NW 4.6 mph - N/A   Mostly Cloudy
9:35 AM 64.9 °F 62.4 °F 92% 30.11 in 10.0 mi NW 4.6 mph - N/A   Scattered Clouds
9:55 AM 65.8 °F 59.7 °F 81% 30.11 in 10.0 mi NNW 3.5 mph - N/A   Clear
10:15 AM 67.5 °F 56.3 °F 67% 30.11 in 10.0 mi North 6.9 mph - N/A   Clear
10:35 AM 68.9 °F 57.7 °F 68% 30.11 in 10.0 mi North 4.6 mph - N/A   Clear
10:55 AM 70.9 °F 53.1 °F 53% 30.11 in 10.0 mi NNW 6.9 mph - N/A   Clear
11:15 AM 71.8 °F 53.4 °F 52% 30.11 in 10.0 mi NNE 8.1 mph - N/A   Clear
11:35 AM 72.7 °F 50.5 °F 46% 30.11 in 10.0 mi North 8.1 mph - N/A   Clear
11:55 AM 74.1 °F 48.2 °F 40% 30.11 in 10.0 mi NNW 6.9 mph - N/A   Clear
12:15 PM 75.2 °F 47.5 °F 37% 30.11 in 10.0 mi NW 5.8 mph - N/A   Clear
12:35 PM 76.3 °F 45.0 °F 33% 30.11 in 10.0 mi North 8.1 mph - N/A   Clear
1:15 PM 79.2 °F 33.1 °F 19% 30.09 in 10.0 mi NW 8.1 mph - N/A   Clear
1:35 PM 79.2 °F 39.0 °F 24% 30.08 in 10.0 mi North 8.1 mph - N/A   Clear
1:55 PM 80.6 °F 39.6 °F 23% 30.08 in 10.0 mi NNE 6.9 mph - N/A   Clear
2:15 PM 81.7 °F 40.5 °F 23% 30.07 in 10.0 mi NNW 10.4 mph - N/A   Clear
2:35 PM 81.9 °F 40.8 °F 23% 30.06 in 10.0 mi North 10.4 mph - N/A   Clear
3:15 PM 82.9 °F 44.1 °F 25% 30.06 in 10.0 mi NNW 6.9 mph - N/A   Clear
3:35 PM 82.4 °F 44.8 °F 27% 30.05 in 10.0 mi North 8.1 mph - N/A   Clear
3:55 PM 82.6 °F 44.8 °F 26% 30.05 in 10.0 mi North 8.1 mph - N/A   Clear
4:35 PM 81.3 °F 45.5 °F 28% 30.05 in 10.0 mi NE 8.1 mph - N/A   Clear
4:55 PM 81.3 °F 46.4 °F 29% 30.05 in 10.0 mi NE 6.9 mph - N/A   Clear
5:15 PM 81.5 °F 46.4 °F 29% 30.05 in 10.0 mi North 4.6 mph - N/A   Clear
5:35 PM 81.0 °F 46.4 °F 30% 30.05 in 10.0 mi NE 4.6 mph - N/A   Clear
5:55 PM 80.1 °F 47.3 °F 32% 30.05 in 10.0 mi NNE 4.6 mph - N/A   Clear
6:15 PM 79.3 °F 48.9 °F 34% 30.05 in 10.0 mi Calm Calm - N/A   Clear
6:35 PM 74.3 °F 53.1 °F 47% 30.05 in 10.0 mi Calm Calm - N/A   Clear
6:55 PM 71.6 °F 53.6 °F 53% 30.05 in 10.0 mi Calm Calm - N/A   Clear
7:15 PM 68.7 °F 54.9 °F 61% 30.06 in 10.0 mi Calm Calm - N/A   Clear
7:35 PM 66.6 °F 55.4 °F 67% 30.06 in 10.0 mi Calm Calm - N/A   Clear
7:55 PM 64.9 °F 55.9 °F 73% 30.07 in 10.0 mi Calm Calm - N/A   Clear
8:15 PM 63.9 °F 55.9 °F 75% 30.07 in 10.0 mi Calm Calm - N/A   Clear
8:35 PM 63.1 °F 55.0 °F 75% 30.08 in 10.0 mi Calm Calm - N/A   Clear
8:55 PM 63.3 °F 55.2 °F 75% 30.08 in 10.0 mi Calm Calm - N/A   Clear
9:15 PM 60.6 °F 55.9 °F 85% 30.09 in 10.0 mi Calm Calm - N/A   Clear
9:35 PM 60.3 °F 55.9 °F 86% 30.09 in 10.0 mi Calm Calm - N/A   Clear
9:55 PM 59.7 °F 55.8 °F 87% 30.10 in 10.0 mi North - - N/A   Clear
10:15 PM 59.2 °F 55.8 °F 88% 30.11 in 10.0 mi Calm Calm - N/A   Clear
10:35 PM 58.5 °F 55.8 °F 91% 30.11 in 10.0 mi Calm Calm - N/A   Clear
10:55 PM 58.5 °F 55.2 °F 89% 30.11 in 10.0 mi Calm Calm - N/A   Clear
11:15 PM 58.5 °F 55.0 °F 88% 30.10 in 10.0 mi Calm Calm - N/A   Clear
11:35 PM 58.5 °F 55.6 °F 90% 30.11 in 10.0 mi Calm Calm - N/A   Clear
11:55 PM 58.8 °F 55.4 °F 88% 30.11 in 10.0 mi Calm Calm - N/A   Clear